Flag for Morocco Weather past 2 weeks in Rabat, Morocco

Now
54 °F

Fog.


Feels Like: 54 °F
Forecast: N/A
Wind: 1 mph from Northeast

Location: Rabat-Sale

Current Time: Dec 21, 2014 at 8:33:18 PM

Latest Report: Dec 21, 2014 at 8:00 PM


Visibility: 1 mi

Pressure: 30.30 "Hg

Humidity: 88%

Dew point: 50 °F

Location of RabatLocation

Historic Weather in Rabat — Graph

°F

Rabat temperature yesterday

Maximum temperature yesterday: 55 °F (at 3:00 PM)
Minimum temperature yesterday: 48 °F (at 12:00 AM)
Average temperature yesterday: 53 °F

Past Weeks' High & Low Weather Summary

 TemperatureHumidityPressure
High68 °F (Dec 13, 11:30 AM)100% (Dec 11, 5:00 AM)30.45 "Hg (Dec 11, 5:00 AM)
Low43 °F (Dec 8, 11:30 PM)30% (Dec 13, 12:00 PM)29.89 "Hg (Dec 13, 2:00 PM)
Average54 °F80%30.25 "Hg
* Reported Dec 6 7:00 PM — Dec 21 7:30 PM, Rabat, Weather by CustomWeather, © 2014

Note: Actual official high and low records may vary slightly from our data, if they occured in-between our weather recording intervals... More about our weather records

Advertising

Rabat weather history for previous 24 hours

 ConditionsComfort  
Time TempWeatherWind HumidityBarometerVisibility
7:30 PM
Dec 21
54 °FFog.No wind88%30.30 "Hg2 mi
7:00 PM54 °FFog.No wind88%30.30 "Hg2 mi
6:30 PM54 °FFog.No wind88%30.30 "Hg2 mi
6:00 PM54 °FFog.No wind88%30.27 "Hg2 mi
5:30 PM54 °FFog.2 mph88%30.27 "Hg2 mi
5:00 PM54 °FFog.2 mph88%30.27 "Hg2 mi
4:00 PM55 °FFog.5 mph82%30.27 "Hg2 mi
3:30 PM57 °FFog.2 mph82%30.27 "Hg2 mi
3:00 PM55 °FFog.No wind82%30.30 "Hg2 mi
2:30 PM55 °FFog.2 mph82%30.30 "Hg2 mi
2:00 PM55 °FFog.1 mph82%30.30 "Hg2 mi
1:30 PM55 °FFog.1 mph82%30.30 "Hg2 mi
1:00 PM55 °FFog.2 mph82%30.33 "Hg2 mi
12:30 PM55 °FFog.No wind82%30.33 "Hg2 mi
12:00 PM55 °FFog.1 mph82%30.36 "Hg2 mi
11:30 AM55 °FFog.2 mph82%30.36 "Hg1 mi
11:00 AM54 °FFog.2 mph88%30.39 "Hg1 mi
10:30 AM54 °FFog.2 mph88%30.39 "Hg1 mi
10:00 AM54 °FFog.3 mph88%30.39 "Hg1 mi
9:00 AM52 °FFog.3 mph88%30.39 "Hg1 mi
8:30 AM52 °FFog.3 mph88%30.36 "Hg1 mi
8:00 AM52 °FFog.3 mph88%30.36 "Hg1 mi
7:30 AM52 °FFog.3 mph88%30.36 "Hg1 mi
7:00 AM52 °FFog.2 mph88%30.36 "Hg1 mi
6:30 AM52 °FFog.2 mph88%30.36 "Hg1 mi
6:00 AM52 °FFog.1 mph88%30.36 "Hg1 mi
5:30 AM52 °FFog.3 mph88%30.33 "Hg2 mi
5:00 AM52 °FPartly cloudy.1 mph88%30.33 "Hg4 mi
4:00 AM52 °FPartly cloudy.1 mph88%30.36 "Hg4 mi
3:00 AM52 °FPartly cloudy.1 mph88%30.36 "Hg4 mi
2:00 AM52 °FPartly cloudy.2 mph88%30.36 "Hg4 mi
1:30 AM54 °FPartly cloudy.1 mph82%30.36 "Hg4 mi
12:30 AM55 °FPartly cloudy.2 mph82%30.36 "Hg4 mi
12:00 AM55 °FPartly cloudy.2 mph82%30.39 "Hg4 mi
11:30 PM
Dec 20
55 °FPartly cloudy.2 mph82%30.39 "Hg4 mi
11:00 PM55 °FPartly cloudy.5 mph82%30.39 "Hg4 mi
10:30 PM54 °FPartly cloudy.2 mph88%30.39 "Hg4 mi
10:00 PM54 °FPartly cloudy.2 mph88%30.39 "Hg4 mi
9:30 PM55 °FPartly cloudy.2 mph82%30.39 "Hg4 mi
9:00 PM55 °FPartly cloudy.3 mph82%30.39 "Hg4 mi
8:00 PM55 °FPartly cloudy.2 mph82%30.39 "Hg4 mi
Weather by CustomWeather, © 2014

See weather overviewHow to use our weather pages